Location: Recife
(8.0585°S, 34.8848°W)
Time: 12:16:30
(UTC-03:00)

Injun/Solrad 3 - Pass Details

Date: 15 April 2026
Orbit: 868 x 988 km, 66.8° (Epoch: 12 May)

Event Time Altitude Azimuth Distance (km) Brightness Sun altitude
Rises 19:07:38 0° 184° (S) 3,463 10.9 -27.9°
Enters shadow 19:09:05 - 180° (S) 2,952 10.5 -28.2°
Reaches altitude 10° 19:10:22 10° 175° (S) 2,517 - -28.5°
Maximum altitude 19:15:32 33° 111° (ESE) 1,414 - -29.8°
Drops below altitude 10° 19:20:42 10° 48° (NE) 2,516 - -31.1°
Sets 19:23:24 0° 39° (NE) 3,461 - -31.8°
